Hourly Weather Lukta

Today, 18 May, Tuesday

Time Temperature Precipitation Wind Pressure Humidity
00:00 +12°C° 0 mm 1 mps 744 mmHg 92%
01:00 +12°C° 0 mm 1 mps 744 mmHg 93%
02:00 +12°C° 0 mm 1 mps 744 mmHg 94%
03:00 +11°C° 0 mm 1 mps 744 mmHg 94%
04:00 +11°C° 0 mm 1 mps 744 mmHg 95%
05:00 +12°C° 0 mm 2 mps 744 mmHg 92%
06:00 +13°C° 0 mm 2 mps 744 mmHg 89%
07:00 +14°C° 0 mm 2 mps 744 mmHg 86%
08:00 +14°C° 0.1 mm 3 mps 744 mmHg 85%
09:00 +14°C° 0.1 mm 3 mps 744 mmHg 83%
10:00 +14°C° 0.1 mm 3 mps 745 mmHg 82%
11:00 +14°C° 0.2 mm 4 mps 745 mmHg 83%
12:00 +13°C° 0.2 mm 4 mps 745 mmHg 85%
13:00 +13°C° 0.2 mm 5 mps 745 mmHg 86%
14:00 +13°C° 0 mm 5 mps 745 mmHg 86%
15:00 +12°C° 0 mm 5 mps 745 mmHg 86%
16:00 +12°C° 0 mm 5 mps 745 mmHg 85%
17:00 +10°C° 0 mm 5 mps 746 mmHg 87%
18:00 +10°C° 0 mm 5 mps 746 mmHg 89%
19:00 +10°C° 0 mm 4 mps 746 mmHg 91%
20:00 +10°C° 0 mm 4 mps 746 mmHg 92%
21:00 +8°C° 0 mm 4 mps 746 mmHg 93%
22:00 +7°C° 0 mm 4 mps 747 mmHg 95%
23:00 +7°C° 0 mm 4 mps 747 mmHg 95%

Tomorrow, 19 May, Wednesday

Time Temperature Precipitation Wind Pressure Humidity
00:00 +8°C° 0 mm 3 mps 747 mmHg 95%
01:00 +8°C° 0 mm 3 mps 747 mmHg 95%
02:00 +7°C° 0 mm 3 mps 747 mmHg 94%
03:00 +7°C° 0 mm 3 mps 747 mmHg 94%
04:00 +7°C° 0 mm 3 mps 747 mmHg 94%
05:00 +8°C° 0 mm 3 mps 747 mmHg 89%
06:00 +10°C° 0 mm 3 mps 748 mmHg 85%
07:00 +11°C° 0 mm 4 mps 748 mmHg 80%
08:00 +12°C° 0.1 mm 4 mps 748 mmHg 78%
09:00 +13°C° 0.1 mm 4 mps 748 mmHg 76%
10:00 +14°C° 0.1 mm 4 mps 748 mmHg 74%
11:00 +14°C° 0.3 mm 4 mps 748 mmHg 75%
12:00 +14°C° 0.3 mm 4 mps 749 mmHg 75%
13:00 +13°C° 0.3 mm 4 mps 749 mmHg 76%
14:00 +13°C° 0.2 mm 4 mps 749 mmHg 74%
15:00 +13°C° 0.2 mm 4 mps 749 mmHg 72%
16:00 +13°C° 0.2 mm 5 mps 749 mmHg 70%
17:00 +12°C° 0 mm 4 mps 750 mmHg 73%
18:00 +10°C° 0 mm 3 mps 750 mmHg 77%
19:00 +9°C° 0 mm 2 mps 750 mmHg 80%
20:00 +8°C° 0 mm 2 mps 751 mmHg 83%
21:00 +7°C° 0 mm 2 mps 751 mmHg 86%
22:00 +7°C° 0 mm 1 mps 751 mmHg 89%
23:00 +6°C° 0 mm 2 mps 751 mmHg 90%

Day after tomorrow, 20 May, Thursday

Time Temperature Precipitation Wind Pressure Humidity
00:00 +5°C° 0 mm 2 mps 751 mmHg 92%
01:00 +5°C° 0 mm 2 mps 751 mmHg 93%
02:00 +5°C° 0 mm 2 mps 751 mmHg 93%
03:00 +4°C° 0 mm 2 mps 751 mmHg 93%
04:00 +4°C° 0 mm 2 mps 752 mmHg 93%
05:00 +5°C° 0 mm 3 mps 752 mmHg 87%
06:00 +8°C° 0 mm 3 mps 752 mmHg 80%
07:00 +11°C° 0 mm 4 mps 752 mmHg 74%
08:00 +12°C° 0 mm 4 mps 752 mmHg 68%
09:00 +13°C° 0 mm 4 mps 752 mmHg 63%
10:00 +14°C° 0 mm 4 mps 752 mmHg 58%
11:00 +15°C° 0 mm 4 mps 752 mmHg 57%
12:00 +15°C° 0 mm 4 mps 752 mmHg 56%
13:00 +15°C° 0 mm 4 mps 752 mmHg 55%
14:00 +15°C° 0 mm 5 mps 753 mmHg 59%
15:00 +14°C° 0 mm 5 mps 753 mmHg 63%
16:00 +13°C° 0 mm 6 mps 753 mmHg 68%
17:00 +12°C° 0.1 mm 5 mps 753 mmHg 71%
18:00 +10°C° 0.1 mm 4 mps 753 mmHg 75%
19:00 +9°C° 0.1 mm 3 mps 754 mmHg 78%
20:00 +7°C° 0 mm 3 mps 754 mmHg 82%
21:00 +5°C° 0 mm 3 mps 754 mmHg 86%
22:00 +5°C° 0 mm 2 mps 754 mmHg 90%
23:00 +4°C° 0 mm 2 mps 754 mmHg 90%

21 May, Friday

Time Temperature Precipitation Wind Pressure Humidity
00:00 +3°C° 0 mm 3 mps 754 mmHg 90%
01:00 +2°C° 0 mm 3 mps 754 mmHg 90%
02:00 +2°C° 0 mm 3 mps 754 mmHg 91%
03:00 +2°C° 0 mm 3 mps 754 mmHg 92%
04:00 +2°C° 0 mm 3 mps 753 mmHg 94%
05:00 +4°C° 0 mm 4 mps 754 mmHg 86%
06:00 +6°C° 0 mm 4 mps 754 mmHg 79%
07:00 +8°C° 0 mm 4 mps 754 mmHg 71%
08:00 +10°C° 0 mm 4 mps 754 mmHg 65%
09:00 +11°C° 0 mm 4 mps 753 mmHg 60%
10:00 +12°C° 0 mm 4 mps 753 mmHg 54%
11:00 +12°C° 0 mm 4 mps 753 mmHg 51%
12:00 +13°C° 0 mm 4 mps 753 mmHg 49%
13:00 +13°C° 0 mm 4 mps 752 mmHg 47%
14:00 +14°C° 0 mm 4 mps 752 mmHg 47%
15:00 +14°C° 0 mm 4 mps 752 mmHg 48%
16:00 +14°C° 0 mm 3 mps 752 mmHg 49%
17:00 +13°C° 0 mm 3 mps 751 mmHg 56%
18:00 +12°C° 0 mm 2 mps 751 mmHg 63%
19:00 +10°C° 0 mm 2 mps 751 mmHg 71%
20:00 +9°C° 0 mm 2 mps 751 mmHg 73%
21:00 +8°C° 0 mm 2 mps 751 mmHg 76%
22:00 +6°C° 0 mm 2 mps 751 mmHg 79%
23:00 +7°C° 0 mm 2 mps 751 mmHg 79%

22 May, Saturday

Time Temperature Precipitation Wind Pressure Humidity
00:00 +7°C° 0 mm 2 mps 750 mmHg 79%
01:00 +8°C° 0 mm 2 mps 750 mmHg 79%
02:00 +8°C° 0.3 mm 3 mps 750 mmHg 84%
03:00 +8°C° 0.3 mm 3 mps 749 mmHg 89%
04:00 +8°C° 0.3 mm 3 mps 749 mmHg 94%
05:00 +8°C° 0.1 mm 4 mps 749 mmHg 93%
06:00 +10°C° 0.1 mm 4 mps 748 mmHg 91%
07:00 +11°C° 0.1 mm 4 mps 748 mmHg 90%
08:00 +13°C° 0 mm 5 mps 748 mmHg 80%
09:00 +15°C° 0 mm 6 mps 748 mmHg 70%
10:00 +17°C° 0 mm 6 mps 747 mmHg 60%
11:00 +16°C° 0 mm 6 mps 747 mmHg 61%
12:00 +16°C° 0 mm 6 mps 747 mmHg 62%
13:00 +16°C° 0 mm 6 mps 747 mmHg 64%
14:00 +16°C° 0.1 mm 6 mps 747 mmHg 67%
15:00 +16°C° 0.1 mm 5 mps 747 mmHg 70%
16:00 +16°C° 0.1 mm 5 mps 747 mmHg 73%
17:00 +14°C° 0.5 mm 4 mps 747 mmHg 79%
18:00 +13°C° 0.5 mm 4 mps 747 mmHg 85%
19:00 +12°C° 0.5 mm 4 mps 748 mmHg 91%
20:00 +11°C° 0.9 mm 3 mps 748 mmHg 92%
21:00 +12°C° 0.9 mm 2 mps 748 mmHg 93%
22:00 +10°C° 0.9 mm 2 mps 748 mmHg 94%
23:00 +10°C° 0.1 mm 2 mps 748 mmHg 94%

23 May, Sunday

Time Temperature Precipitation Wind Pressure Humidity
00:00 +9°C° 0.1 mm 2 mps 748 mmHg 94%
01:00 +9°C° 0.1 mm 2 mps 748 mmHg 93%
02:00 +9°C° 0 mm 2 mps 748 mmHg 93%
03:00 +8°C° 0 mm 2 mps 749 mmHg 94%
04:00 +8°C° 0 mm 2 mps 749 mmHg 94%
05:00 +9°C° 0 mm 2 mps 749 mmHg 88%
06:00 +12°C° 0 mm 2 mps 749 mmHg 82%
07:00 +13°C° 0 mm 2 mps 749 mmHg 77%
08:00 +13°C° 0 mm 3 mps 749 mmHg 69%
09:00 +16°C° 0 mm 3 mps 749 mmHg 62%
10:00 +17°C° 0 mm 4 mps 749 mmHg 54%
11:00 +17°C° 0.2 mm 4 mps 749 mmHg 56%
12:00 +17°C° 0.2 mm 4 mps 749 mmHg 57%
13:00 +17°C° 0.2 mm 4 mps 749 mmHg 58%
14:00 +17°C° 0.3 mm 4 mps 749 mmHg 60%
15:00 +17°C° 0.3 mm 4 mps 749 mmHg 63%
16:00 +17°C° 0.3 mm 4 mps 749 mmHg 66%
17:00 +14°C° 0.3 mm 3 mps 750 mmHg 72%
18:00 +13°C° 0.3 mm 3 mps 750 mmHg 79%
19:00 +13°C° 0.3 mm 2 mps 750 mmHg 86%
20:00 +12°C° 0 mm 2 mps 751 mmHg 88%
21:00 +10°C° 0 mm 2 mps 751 mmHg 90%
22:00 +9°C° 0 mm 2 mps 751 mmHg 92%
23:00 +8°C° 0 mm 2 mps 752 mmHg 93%
Show more

We Need Your Consent

Meteoprog and our Service Providers may store and access personal data such as cookies, device identifiers or other similar technologies on your device and process such data to personalise content and ads, as well as provide social media features and to analyse the traffic.

  • Store and/or access information on your device

    Cookies, device identifiers or other information can be stored or accessed on your device for the purposes indicated above.

  • Personalised ads and content, ad and content measurement, audience insights, and products development

    Ads and content can be personalised based on a profile. More data can be added to better personalise ads and content. Ad and content performance can be measured. Insights about the audience who saw the ads and content can be derived. Such data can be used to develop or improve user’s experience, systems and software.

By clicking ‘I Agree’ you will allow the use of indicated cookies, device identifiers, web beacons or other similar technologies. Your settings can be changed in the browser on your device.

For certain purposes, legitimate interests may be relied on, rather than consent. You can read more about this in our Privacy and Cookie Policy.